QPF
0.00 0.00 0.01 0.01 0.01 0.01 0.01 0.01 0.01 0.01 0.02 0.02 0.01 0.01 0.00 0.00 0.00 0.02 0.04 0.06 0.05 0.04 0.05 0.05 0.04 0.05 0.05 0.03 0.03 0.02 0.03 0.03 0.02 0.02 0.02 0.02 0.02 0.03 0.08 0.13 0.10 0.09 0.09 0.07
0.00 0.00 0.00 0.00 0.00 0.00 0.00 0.01 0.01 0.02 0.03 0.02 0.01 0.00 0.00 0.00 0.00 0.01 0.02 0.03 0.05 0.05 0.05 0.09 0.08 0.07 0.07 0.05 0.04 0.03 0.02 0.03 0.02 0.02 0.03 0.03 0.03 0.02 0.03 0.09 0.12 0.11 0.10 0.09
0.00 0.00 0.00 0.00 0.00 0.00 0.00 0.00 0.01 0.01 0.02 0.02 0.01 0.01 0.00 0.00 0.00 0.00 0.01 0.01 0.03 0.04 0.04 0.06 0.11 0.07 0.06 0.05 0.02 0.01 0.01 0.01 0.02 0.03 0.03 0.02 0.02 0.01 0.01 0.03 0.08 0.12 0.12 0.09
0.00 0.00 0.00 0.00 0.00 0.00 0.01 0.00 0.00 0.01 0.02 0.02 0.01 0.01 0.00 0.00 0.00 0.00 0.00 0.00 0.01 0.02 0.03 0.02 0.05 0.05 0.04 0.02 0.01 0.01 0.00 0.00 0.01 0.02 0.01 0.01 0.01 0.00 0.00 0.01 0.02 0.04 0.06 0.06
0.00 0.00 0.00 0.00 0.00 0.00 0.00 0.00 0.00 0.01 0.01 0.02 0.01 0.00 0.00 0.00 0.01 0.01 0.01 0.00 0.00 0.01 0.01 0.02 0.03 0.03 0.03 0.02 0.01 0.01 0.01 0.01 0.01 0.01 0.01 0.02 0.01 0.01 0.01 0.01 0.02 0.02 0.02 0.04
0.00 0.00 0.00 0.00 0.00 0.00 0.00 0.00 0.01 0.01 0.02 0.01 0.00 0.00 0.00 0.00 0.00 0.01 0.00 0.00 0.00 0.01 0.00 0.01 0.02 0.02 0.02 0.02 0.02 0.01 0.01 0.02 0.02 0.02 0.02 0.02 0.02 0.03 0.01 0.01 0.02 0.01 0.02 0.03
0.00 0.00 0.00 0.00 0.00 0.00 0.00 0.01 0.01 0.01 0.01 0.00 0.00 0.00 0.00 0.00 0.00 0.00 0.00 0.00 0.00 0.00 0.00 0.00 0.01 0.01 0.01 0.01 0.02 0.01 0.01 0.02 0.02 0.02 0.03 0.02 0.02 0.02 0.03 0.03 0.03 0.02 0.02 0.03
0.00 0.00 0.00 0.00 0.00 0.00 0.00 0.00 0.00 0.01 0.00 0.00 0.00 0.00 0.00 0.00 0.00 0.00 0.00 0.00 0.00 0.00 0.00 0.00 0.01 0.01 0.01 0.01 0.02 0.03 0.04 0.03 0.02 0.03 0.03 0.02 0.02 0.01 0.01 0.02 0.02 0.03 0.03 0.03
0.00 0.00 0.00 0.00 0.00 0.00 0.00 0.00 0.00 0.00 0.00 0.00 0.00 0.00 0.00 0.01 0.01 0.01 0.01 0.00 0.00 0.01 0.01 0.01 0.01 0.02 0.02 0.03 0.05 0.07 0.08 0.06 0.04 0.03 0.03 0.03 0.03 0.02 0.02 0.02 0.01 0.02 0.04 0.04
0.00 0.00 0.00 0.00 0.00 0.00 0.00 0.00 0.00 0.01 0.00 0.00 0.00 0.00 0.00 0.01 0.01 0.01 0.00 0.01 0.01 0.01 0.01 0.02 0.02 0.03 0.04 0.05 0.06 0.08 0.09 0.09 0.06 0.04 0.03 0.03 0.02 0.02 0.02 0.02 0.02 0.01 0.03 0.04
0.00 0.00 0.00 0.00 0.00 0.00 0.00 0.00 0.00 0.00 0.00 0.00 0.00 0.01 0.00 0.00 0.00 0.01 0.01 0.01 0.01 0.01 0.01 0.01 0.01 0.02 0.02 0.03 0.03 0.04 0.06 0.05 0.04 0.03 0.03 0.02 0.01 0.01 0.02 0.03 0.02 0.02 0.03 0.03
0.00 0.00 0.00 0.00 0.00 0.00 0.00 0.01 0.01 0.01 0.00 0.00 0.00 0.01 0.00 0.00 0.00 0.00 0.01 0.01 0.01 0.01 0.01 0.01 0.01 0.01 0.02 0.02 0.02 0.02 0.01 0.02 0.02 0.02 0.02 0.02 0.02 0.02 0.02 0.02 0.02 0.03 0.03 0.03
0.00 0.00 0.00 0.00 0.00 0.00 0.00 0.00 0.01 0.01 0.00 0.00 0.00 0.00 0.00 0.00 0.00 0.00 0.00 0.01 0.01 0.01 0.01 0.01 0.01 0.01 0.01 0.02 0.02 0.02 0.01 0.02 0.02 0.02 0.03 0.03 0.03 0.03 0.03 0.02 0.03 0.03 0.03 0.03
0.00 0.00 0.00 0.00 0.00 0.00 0.00 0.00 0.00 0.01 0.00 0.00 0.00 0.00 0.00 0.01 0.01 0.01 0.01 0.01 0.01 0.01 0.01 0.00 0.00 0.01 0.01 0.02 0.02 0.02 0.02 0.02 0.02 0.03 0.03 0.03 0.04 0.04 0.04 0.03 0.02 0.03 0.04 0.04
0.00 0.00 0.00 0.00 0.00 0.00 0.00 0.00 0.00 0.00 0.00 0.00 0.00 0.00 0.00 0.01 0.01 0.01 0.01 0.01 0.01 0.01 0.01 0.01 0.00 0.01 0.01 0.01 0.01 0.01 0.01 0.02 0.02 0.02 0.02 0.02 0.03 0.03 0.03 0.03 0.03 0.03 0.02 0.03
0.00 0.00 0.00 0.00 0.00 0.00 0.00 0.00 0.00 0.00 0.00 0.00 0.00 0.00 0.00 0.00 0.01 0.01 0.00 0.01 0.01 0.01 0.01 0.02 0.01 0.01 0.01 0.01 0.01 0.01 0.01 0.01 0.01 0.01 0.02 0.02 0.02 0.03 0.03 0.02 0.02 0.03 0.03 0.04
0.00 0.00 0.00 0.00 0.00 0.00 0.00 0.00 0.00 0.00 0.00 0.00 0.00 0.00 0.00 0.00 0.00 0.00 0.01 0.01 0.01 0.02 0.02 0.02 0.02 0.01 0.01 0.01 0.01 0.01 0.01 0.02 0.02 0.02 0.02 0.02 0.04 0.05 0.04 0.02 0.03 0.04 0.05 0.04
0.00 0.00 0.00 0.00 0.00 0.00 0.00 0.00 0.00 0.00 0.00 0.00 0.00 0.00 0.00 0.00 0.00 0.00 0.01 0.01 0.01 0.01 0.01 0.01 0.02 0.02 0.02 0.02 0.02 0.03 0.03 0.03 0.02 0.02 0.01 0.01 0.02 0.03 0.04 0.04 0.04 0.05 0.05 0.03
0.00 0.00 0.00 0.00 0.00 0.00 0.00 0.00 0.00 0.00 0.00 0.00 0.00 0.00 0.00 0.00 0.00 0.00 0.00 0.00 0.01 0.01 0.01 0.01 0.02 0.02 0.03 0.03 0.04 0.04 0.04 0.04 0.04 0.03 0.02 0.02 0.03 0.03 0.03 0.04 0.05 0.05 0.05 0.03
0.00 0.00 0.00 0.00 0.00 0.00 0.00 0.00 0.00 0.00 0.00 0.00 0.00 0.00 0.00 0.00 0.01 0.01 0.00 0.00 0.00 0.01 0.01 0.01 0.02 0.02 0.03 0.03 0.04 0.04 0.05 0.04 0.03 0.03 0.03 0.03 0.04 0.04 0.05 0.05 0.06 0.06 0.06 0.05
0.00 0.00 0.00 0.00 0.00 0.00 0.00 0.00 0.00 0.00 0.00 0.00 0.01 0.01 0.01 0.01 0.01 0.01 0.01 0.01 0.01 0.00 0.00 0.01 0.01 0.02 0.03 0.03 0.03 0.04 0.03 0.03 0.02 0.03 0.03 0.03 0.03 0.04 0.05 0.06 0.07 0.07 0.08 0.07
0.00 0.00 0.00 0.00 0.00 0.00 0.00 0.00 0.00 0.00 0.00 0.00 0.01 0.01 0.01 0.01 0.01 0.01 0.01 0.00 0.00 0.00 0.01 0.01 0.01 0.02 0.02 0.03 0.03 0.03 0.03 0.03 0.03 0.02 0.03 0.03 0.03 0.04 0.04 0.04 0.06 0.07 0.08 0.08
0.00 0.00 0.00 0.00 0.00 0.00 0.00 0.00 0.00 0.00 0.00 0.01 0.02 0.02 0.01 0.01 0.01 0.01 0.01 0.01 0.01 0.01 0.01 0.02 0.02 0.02 0.02 0.03 0.03 0.03 0.03 0.03 0.03 0.03 0.03 0.03 0.03 0.03 0.02 0.02 0.03 0.05 0.06 0.06
0.00 0.00 0.00 0.00 0.00 0.00 0.00 0.00 0.00 0.00 0.01 0.01 0.02 0.02 0.02 0.02 0.02 0.02 0.02 0.02 0.03 0.03 0.02 0.03 0.04 0.04 0.04 0.04 0.04 0.05 0.05 0.05 0.04 0.04 0.04 0.04 0.03 0.03 0.02 0.02 0.02 0.03 0.03 0.04
0.00 0.00 0.00 0.00 0.00 0.00 0.00 0.01 0.01 0.01 0.01 0.01 0.01 0.02 0.03 0.03 0.04 0.04 0.03 0.03 0.03 0.03 0.03 0.03 0.04 0.04 0.04 0.04 0.05 0.05 0.06 0.05 0.04 0.03 0.03 0.02 0.02 0.02 0.02 0.02 0.02 0.02 0.02 0.02
0.00 0.00 0.01 0.01 0.01 0.01 0.00 0.01 0.01 0.01 0.01 0.01 0.01 0.01 0.01 0.02 0.02 0.02 0.02 0.03 0.03 0.04 0.05 0.04 0.05 0.05 0.04 0.04 0.03 0.03 0.03 0.03 0.03 0.02 0.01 0.01 0.01 0.01 0.01 0.01 0.01 0.01 0.01 0.01
MSLP
1009.69 1010.58 1011.34 1011.96 1012.45 1012.84 1013.16 1013.42 1013.59 1013.66 1013.59 1013.36 1012.96 1012.43 1011.83 1011.23 1010.73 1010.40 1010.28 1010.35 1010.59 1010.91 1011.23 1011.46 1011.55 1011.49 1011.30 1011.03 1010.76 1010.56 1010.49 1010.57 1010.79 1011.12 1011.49 1011.85 1012.14 1012.34 1012.44 1012.46 1012.43 1012.39 1012.37 1012.38
1010.54 1011.27 1011.83 1012.25 1012.59 1012.89 1013.19 1013.49 1013.75 1013.92 1013.94 1013.76 1013.35 1012.76 1012.04 1011.32 1010.69 1010.26 1010.09 1010.18 1010.49 1010.93 1011.39 1011.76 1011.96 1011.96 1011.78 1011.48 1011.14 1010.85 1010.69 1010.70 1010.88 1011.19 1011.57 1011.94 1012.25 1012.45 1012.55 1012.55 1012.50 1012.43 1012.39 1012.39
1011.12 1011.66 1012.02 1012.27 1012.48 1012.73 1013.05 1013.44 1013.85 1014.17 1014.32 1014.22 1013.83 1013.18 1012.35 1011.46 1010.68 1010.11 1009.85 1009.92 1010.27 1010.81 1011.40 1011.91 1012.24 1012.34 1012.22 1011.92 1011.55 1011.21 1010.99 1010.95 1011.09 1011.38 1011.76 1012.15 1012.48 1012.69 1012.79 1012.78 1012.71 1012.62 1012.55 1012.54
1011.45 1011.79 1011.97 1012.07 1012.20 1012.45 1012.86 1013.41 1014.00 1014.52 1014.83 1014.82 1014.45 1013.73 1012.76 1011.70 1010.71 1009.96 1009.56 1009.55 1009.90 1010.50 1011.20 1011.85 1012.33 1012.55 1012.52 1012.28 1011.93 1011.57 1011.33 1011.26 1011.37 1011.66 1012.04 1012.44 1012.79 1013.02 1013.13 1013.12 1013.03 1012.93 1012.84 1012.81
1011.58 1011.74 1011.76 1011.76 1011.88 1012.19 1012.74 1013.48 1014.29 1015.02 1015.49 1015.58 1015.21 1014.41 1013.29 1012.00 1010.78 1009.80 1009.22 1009.09 1009.39 1010.01 1010.80 1011.58 1012.20 1012.57 1012.66 1012.51 1012.22 1011.90 1011.65 1011.57 1011.68 1011.96 1012.35 1012.77 1013.14 1013.40 1013.52 1013.52 1013.43 1013.31 1013.20 1013.15
1011.59 1011.60 1011.51 1011.47 1011.61 1012.03 1012.75 1013.70 1014.73 1015.66 1016.28 1016.44 1016.05 1015.15 1013.85 1012.34 1010.86 1009.64 1008.85 1008.57 1008.79 1009.40 1010.25 1011.14 1011.90 1012.42 1012.66 1012.63 1012.42 1012.15 1011.93 1011.86 1011.97 1012.25 1012.64 1013.08 1013.47 1013.76 1013.91 1013.92 1013.84 1013.72 1013.60 1013.52
1011.52 1011.42 1011.28 1011.25 1011.47 1012.02 1012.91 1014.06 1015.28 1016.36 1017.09 1017.28 1016.86 1015.85 1014.38 1012.65 1010.93 1009.48 1008.49 1008.05 1008.18 1008.76 1009.65 1010.63 1011.51 1012.17 1012.54 1012.64 1012.53 1012.33 1012.15 1012.09 1012.20 1012.48 1012.88 1013.32 1013.74 1014.05 1014.23 1014.27 1014.21 1014.09 1013.96 1013.87
1011.41 1011.25 1011.11 1011.12 1011.44 1012.12 1013.16 1014.46 1015.81 1016.99 1017.77 1017.96 1017.48 1016.37 1014.75 1012.85 1010.95 1009.32 1008.16 1007.60 1007.64 1008.20 1009.10 1010.14 1011.12 1011.89 1012.38 1012.59 1012.57 1012.43 1012.29 1012.24 1012.36 1012.63 1013.02 1013.47 1013.90 1014.24 1014.45 1014.53 1014.50 1014.39 1014.26 1014.15
1011.23 1011.07 1010.96 1011.06 1011.47 1012.26 1013.41 1014.79 1016.20 1017.40 1018.16 1018.31 1017.78 1016.58 1014.87 1012.87 1010.88 1009.15 1007.91 1007.27 1007.26 1007.78 1008.69 1009.76 1010.79 1011.64 1012.21 1012.50 1012.55 1012.46 1012.35 1012.31 1012.42 1012.67 1013.06 1013.50 1013.94 1014.31 1014.55 1014.67 1014.66 1014.58 1014.47 1014.35
1010.95 1010.83 1010.81 1010.99 1011.50 1012.36 1013.54 1014.92 1016.30 1017.44 1018.14 1018.23 1017.64 1016.41 1014.68 1012.68 1010.69 1008.98 1007.73 1007.09 1007.06 1007.56 1008.45 1009.52 1010.56 1011.44 1012.05 1012.38 1012.47 1012.42 1012.32 1012.29 1012.39 1012.63 1012.99 1013.43 1013.87 1014.25 1014.52 1014.67 1014.71 1014.66 1014.56 1014.46
1010.53 1010.51 1010.59 1010.88 1011.45 1012.33 1013.47 1014.77 1016.03 1017.04 1017.63 1017.63 1017.02 1015.81 1014.15 1012.26 1010.39 1008.78 1007.63 1007.04 1007.03 1007.52 1008.38 1009.40 1010.41 1011.26 1011.87 1012.21 1012.32 1012.29 1012.21 1012.18 1012.27 1012.50 1012.85 1013.27 1013.71 1014.10 1014.39 1014.57 1014.64 1014.63 1014.56 1014.48
1010.00 1010.12 1010.32 1010.70 1011.30 1012.15 1013.19 1014.33 1015.40 1016.24 1016.67 1016.59 1015.96 1014.83 1013.32 1011.62 1009.96 1008.56 1007.57 1007.08 1007.11 1007.59 1008.39 1009.34 1010.27 1011.05 1011.62 1011.94 1012.06 1012.05 1012.00 1012.00 1012.10 1012.32 1012.66 1013.07 1013.50 1013.89 1014.20 1014.40 1014.50 1014.52 1014.48 1014.43
1009.42 1009.69 1010.02 1010.48 1011.09 1011.85 1012.74 1013.66 1014.49 1015.10 1015.36 1015.20 1014.58 1013.57 1012.26 1010.82 1009.43 1008.28 1007.49 1007.14 1007.22 1007.68 1008.39 1009.23 1010.05 1010.74 1011.25 1011.55 1011.68 1011.71 1011.70 1011.75 1011.88 1012.13 1012.47 1012.88 1013.30 1013.68 1013.99 1014.20 1014.32 1014.36 1014.35 1014.32
1008.89 1009.32 1009.78 1010.28 1010.86 1011.51 1012.20 1012.86 1013.42 1013.78 1013.85 1013.60 1013.01 1012.13 1011.05 1009.90 1008.81 1007.94 1007.36 1007.14 1007.26 1007.67 1008.29 1008.99 1009.68 1010.27 1010.70 1010.99 1011.15 1011.24 1011.32 1011.44 1011.64 1011.93 1012.30 1012.71 1013.12 1013.49 1013.78 1013.99 1014.11 1014.16 1014.17 1014.16
1008.54 1009.11 1009.66 1010.19 1010.71 1011.20 1011.66 1012.05 1012.32 1012.42 1012.31 1011.96 1011.40 1010.66 1009.80 1008.92 1008.13 1007.51 1007.13 1007.01 1007.15 1007.50 1008.00 1008.56 1009.11 1009.60 1009.98 1010.27 1010.49 1010.67 1010.86 1011.09 1011.39 1011.75 1012.16 1012.58 1012.98 1013.32 1013.59 1013.78 1013.89 1013.94 1013.95 1013.95
1008.45 1009.12 1009.73 1010.25 1010.67 1011.00 1011.22 1011.32 1011.30 1011.15 1010.85 1010.43 1009.88 1009.25 1008.59 1007.96 1007.41 1007.01 1006.78 1006.73 1006.87 1007.14 1007.52 1007.94 1008.36 1008.76 1009.11 1009.43 1009.73 1010.03 1010.35 1010.72 1011.13 1011.57 1012.03 1012.46 1012.85 1013.16 1013.40 1013.55 1013.63 1013.66 1013.67 1013.66
1008.66 1009.38 1009.99 1010.46 1010.77 1010.91 1010.90 1010.74 1010.45 1010.06 1009.60 1009.09 1008.54 1008.00 1007.49 1007.05 1006.70 1006.46 1006.33 1006.33 1006.43 1006.62 1006.88 1007.18 1007.50 1007.83 1008.18 1008.54 1008.93 1009.36 1009.83 1010.33 1010.85 1011.37 1011.87 1012.31 1012.68 1012.96 1013.15 1013.27 1013.32 1013.33 1013.32 1013.30
1009.12 1009.82 1010.39 1010.77 1010.95 1010.92 1010.69 1010.30 1009.79 1009.20 1008.60 1008.00 1007.45 1006.97 1006.57 1006.26 1006.05 1005.91 1005.85 1005.86 1005.92 1006.03 1006.18 1006.38 1006.62 1006.92 1007.27 1007.69 1008.17 1008.72 1009.31 1009.92 1010.53 1011.11 1011.63 1012.07 1012.41 1012.66 1012.81 1012.89 1012.91 1012.91 1012.89 1012.87
1009.71 1010.33 1010.81 1011.09 1011.13 1010.94 1010.53 1009.96 1009.28 1008.55 1007.84 1007.19 1006.63 1006.19 1005.86 1005.64 1005.51 1005.44 1005.41 1005.41 1005.44 1005.48 1005.56 1005.69 1005.88 1006.16 1006.52 1006.98 1007.54 1008.16 1008.83 1009.51 1010.16 1010.76 1011.28 1011.69 1012.00 1012.21 1012.33 1012.39 1012.41 1012.40 1012.39 1012.37
1010.26 1010.77 1011.13 1011.28 1011.20 1010.88 1010.35 1009.66 1008.87 1008.06 1007.29 1006.62 1006.06 1005.65 1005.37 1005.21 1005.13 1005.10 1005.09 1005.09 1005.09 1005.10 1005.13 1005.22 1005.38 1005.64 1006.02 1006.50 1007.08 1007.73 1008.42 1009.10 1009.75 1010.32 1010.80 1011.17 1011.44 1011.62 1011.73 1011.79 1011.82 1011.84 1011.86 1011.87
1010.62 1010.99 1011.22 1011.26 1011.07 1010.67 1010.07 1009.33 1008.51 1007.68 1006.91 1006.25 1005.72 1005.35 1005.11 1004.99 1004.95 1004.95 1004.96 1004.96 1004.96 1004.96 1004.98 1005.05 1005.20 1005.45 1005.81 1006.28 1006.84 1007.46 1008.11 1008.74 1009.31 1009.81 1010.22 1010.53 1010.76 1010.92 1011.03 1011.12 1011.19 1011.27 1011.35 1011.42
1010.72 1010.93 1011.03 1010.96 1010.71 1010.27 1009.66 1008.94 1008.15 1007.37 1006.65 1006.04 1005.57 1005.24 1005.05 1004.97 1004.96 1004.99 1005.03 1005.06 1005.08 1005.09 1005.13 1005.21 1005.36 1005.60 1005.93 1006.35 1006.85 1007.38 1007.92 1008.44 1008.90 1009.30 1009.61 1009.85 1010.04 1010.19 1010.33 1010.46 1010.61 1010.77 1010.93 1011.08
1010.51 1010.57 1010.55 1010.40 1010.11 1009.68 1009.12 1008.47 1007.78 1007.10 1006.48 1005.96 1005.56 1005.30 1005.16 1005.12 1005.15 1005.22 1005.29 1005.37 1005.43 1005.49 1005.56 1005.67 1005.82 1006.05 1006.34 1006.69 1007.08 1007.49 1007.90 1008.27 1008.59 1008.85 1009.07 1009.24 1009.40 1009.55 1009.72 1009.93 1010.16 1010.41 1010.67 1010.91
1010.05 1009.97 1009.85 1009.65 1009.36 1008.98 1008.50 1007.97 1007.40 1006.85 1006.36 1005.95 1005.65 1005.46 1005.38 1005.39 1005.46 1005.57 1005.70 1005.83 1005.95 1006.07 1006.20 1006.34 1006.51 1006.72 1006.96 1007.23 1007.51 1007.79 1008.04 1008.26 1008.44 1008.58 1008.70 1008.82 1008.95 1009.12 1009.34 1009.61 1009.92 1010.27 1010.62 1010.94
1009.43 1009.24 1009.04 1008.81 1008.55 1008.23 1007.86 1007.46 1007.05 1006.65 1006.29 1006.01 1005.80 1005.69 1005.67 1005.72 1005.84 1006.00 1006.18 1006.37 1006.56 1006.75 1006.94 1007.13 1007.33 1007.53 1007.73 1007.92 1008.10 1008.25 1008.36 1008.45 1008.51 1008.55 1008.60 1008.67 1008.80 1008.99 1009.25 1009.58 1009.96 1010.37 1010.78 1011.16
1008.77 1008.49 1008.24 1008.00 1007.76 1007.52 1007.26 1007.00 1006.74 1006.49 1006.27 1006.09 1005.98 1005.94 1005.98 1006.08 1006.24 1006.44 1006.68 1006.93 1007.19 1007.45 1007.70 1007.94 1008.16 1008.36 1008.54 1008.68 1008.78 1008.84 1008.86 1008.85 1008.83 1008.81 1008.81 1008.87 1009.00 1009.21 1009.50 1009.86 1010.28 1010.72 1011.15 1011.54
Thickness
5810 5796 5786 5792 5797 5798 5792 5783 5778 5787 5802 5795 5787 5786 5792 5796 5794 5792 5790 5789 5789 5790 5792 5792 5790 5789 5785 5782 5778 5776 5773 5771 5768 5765 5763 5760 5759 5760 5760 5761 5760 5759 5759 5758
5792 5788 5802 5808 5805 5799 5792 5782 5779 5789 5801 5794 5785 5786 5795 5798 5797 5798 5796 5794 5792 5791 5790 5790 5790 5789 5786 5782 5780 5777 5775 5773 5771 5769 5766 5764 5762 5762 5761 5762 5761 5760 5759 5758
5788 5798 5811 5806 5799 5793 5788 5783 5783 5783 5790 5791 5784 5779 5788 5797 5801 5802 5801 5800 5798 5795 5792 5791 5790 5789 5787 5784 5782 5780 5777 5774 5772 5770 5768 5765 5762 5761 5760 5760 5760 5761 5760 5759
5791 5804 5806 5801 5797 5794 5782 5797 5794 5788 5773 5763 5774 5752 5777 5787 5791 5797 5800 5800 5800 5800 5798 5794 5793 5790 5789 5788 5786 5782 5779 5776 5774 5771 5768 5764 5761 5759 5760 5761 5761 5761 5760 5759
5790 5802 5800 5795 5801 5801 5795 5802 5794 5785 5772 5760 5762 5752 5764 5781 5783 5793 5800 5803 5805 5805 5802 5799 5798 5796 5794 5791 5787 5784 5780 5777 5775 5773 5770 5766 5763 5762 5762 5761 5760 5760 5760 5759
5797 5808 5808 5806 5811 5808 5803 5790 5778 5765 5756 5742 5753 5748 5754 5771 5784 5794 5803 5806 5808 5807 5806 5804 5802 5798 5794 5792 5788 5784 5780 5777 5775 5773 5770 5767 5765 5763 5761 5760 5758 5758 5758 5758
5784 5796 5808 5813 5799 5798 5791 5765 5741 5737 5727 5734 5753 5749 5758 5787 5797 5800 5804 5806 5809 5808 5806 5803 5799 5796 5793 5791 5788 5785 5781 5777 5776 5773 5770 5768 5766 5764 5762 5760 5759 5757 5757 5757
5764 5766 5796 5806 5799 5787 5781 5769 5740 5728 5723 5731 5747 5746 5770 5795 5801 5805 5808 5809 5809 5806 5806 5804 5801 5797 5794 5792 5788 5785 5781 5777 5775 5773 5770 5769 5767 5764 5763 5761 5759 5758 5757 5757
5759 5765 5797 5806 5808 5796 5776 5764 5764 5740 5732 5726 5736 5752 5775 5793 5795 5799 5802 5803 5803 5803 5804 5802 5800 5797 5794 5791 5788 5786 5781 5778 5775 5773 5770 5768 5766 5764 5763 5762 5760 5758 5757 5757
5774 5766 5784 5796 5800 5793 5786 5768 5748 5734 5720 5717 5732 5742 5751 5774 5782 5790 5794 5796 5799 5800 5799 5799 5798 5795 5793 5791 5788 5785 5782 5778 5776 5773 5770 5769 5766 5764 5762 5760 5758 5757 5756 5755
5778 5763 5769 5779 5777 5773 5772 5761 5744 5729 5730 5716 5715 5736 5773 5775 5781 5785 5790 5794 5796 5796 5796 5796 5795 5793 5792 5788 5785 5782 5780 5777 5773 5771 5769 5767 5764 5762 5760 5758 5757 5755 5754 5753
5770 5754 5747 5762 5779 5783 5777 5764 5749 5736 5725 5719 5717 5737 5782 5780 5783 5784 5786 5790 5793 5793 5793 5792 5791 5789 5786 5783 5781 5779 5777 5774 5772 5770 5767 5764 5762 5760 5758 5756 5755 5753 5751 5750
5766 5748 5732 5739 5752 5766 5765 5759 5751 5738 5722 5713 5716 5740 5776 5777 5779 5780 5781 5784 5787 5787 5787 5785 5784 5782 5781 5779 5777 5775 5773 5771 5769 5766 5763 5760 5758 5756 5754 5752 5751 5749 5748 5746
5770 5744 5737 5730 5738 5752 5754 5754 5750 5740 5723 5718 5727 5742 5760 5766 5769 5772 5775 5777 5779 5780 5779 5778 5776 5776 5775 5773 5771 5770 5768 5766 5764 5761 5758 5755 5753 5752 5750 5748 5747 5745 5743 5742
5762 5741 5744 5746 5753 5754 5754 5752 5749 5745 5738 5731 5739 5741 5753 5760 5764 5766 5768 5770 5771 5770 5770 5769 5768 5768 5768 5767 5765 5765 5762 5761 5759 5756 5753 5751 5749 5747 5745 5743 5741 5740 5738 5737
5747 5738 5738 5739 5746 5748 5745 5748 5747 5745 5743 5739 5739 5740 5755 5758 5760 5759 5760 5761 5761 5762 5763 5764 5763 5762 5761 5761 5760 5759 5757 5754 5752 5749 5747 5744 5742 5740 5738 5737 5735 5733 5731 5729
5731 5728 5721 5717 5732 5735 5724 5738 5740 5741 5743 5740 5733 5742 5749 5748 5750 5751 5752 5753 5754 5756 5757 5756 5756 5756 5756 5755 5755 5752 5750 5747 5743 5741 5739 5737 5735 5732 5731 5730 5727 5725 5724 5722
5723 5716 5706 5704 5714 5702 5725 5746 5745 5738 5738 5741 5741 5743 5744 5744 5746 5748 5748 5747 5748 5749 5750 5749 5749 5749 5748 5748 5746 5744 5741 5738 5735 5732 5730 5729 5727 5725 5723 5720 5719 5717 5715 5713
5720 5711 5697 5690 5692 5702 5722 5736 5736 5729 5727 5737 5736 5737 5737 5739 5738 5736 5742 5743 5743 5743 5744 5743 5742 5742 5740 5739 5737 5734 5731 5728 5726 5723 5721 5720 5719 5716 5713 5712 5710 5708 5707 5705
5707 5705 5694 5685 5687 5686 5711 5734 5739 5729 5714 5731 5731 5729 5729 5729 5717 5722 5734 5734 5734 5735 5735 5734 5733 5732 5730 5728 5727 5723 5720 5717 5715 5714 5713 5711 5709 5706 5704 5703 5701 5700 5698 5697
5693 5688 5684 5681 5683 5692 5715 5727 5729 5705 5710 5726 5725 5724 5722 5720 5720 5724 5727 5725 5725 5725 5724 5724 5722 5719 5717 5716 5715 5711 5709 5706 5705 5704 5702 5700 5698 5697 5695 5694 5692 5690 5689 5688
5681 5677 5673 5670 5675 5684 5713 5715 5710 5710 5720 5720 5719 5719 5717 5715 5717 5717 5717 5715 5714 5713 5712 5712 5709 5706 5705 5704 5702 5700 5697 5697 5695 5693 5691 5690 5689 5687 5686 5683 5681 5680 5678 5676
5673 5676 5674 5676 5680 5694 5702 5706 5711 5711 5711 5712 5712 5712 5711 5708 5706 5706 5705 5704 5703 5702 5701 5699 5696 5693 5692 5691 5690 5687 5686 5685 5684 5682 5680 5678 5677 5676 5674 5672 5670 5668 5666 5665
5671 5671 5669 5671 5681 5690 5696 5700 5704 5706 5705 5705 5705 5704 5703 5699 5698 5696 5694 5693 5691 5690 5688 5687 5684 5682 5680 5679 5678 5676 5675 5674 5672 5670 5668 5666 5665 5664 5662 5661 5659 5656 5654 5653
5665 5665 5662 5665 5675 5683 5689 5692 5694 5696 5697 5697 5696 5696 5694 5692 5689 5687 5684 5683 5681 5679 5677 5675 5674 5672 5670 5669 5667 5666 5665 5664 5662 5659 5657 5655 5653 5651 5649 5648 5645 5644 5643 5641
5657 5658 5658 5660 5670 5670 5675 5683 5686 5686 5686 5686 5686 5684 5684 5683 5680 5678 5675 5673 5671 5668 5666 5663 5662 5661 5660 5659 5657 5655 5654 5653 5651 5648 5645 5643 5642 5640 5638 5636 5634 5633 5631 5631